This demonstration page uses our WeatherBlox Daily Observations layout. Learn more.

Left ArrowRight Arrow

44.8408, -93.29828

Hourly Observations for September 18, 2019

Temp ( °F °C ) Dew Point ( °F °C ) Humidity (%) Winds ( mph kmh ) Pressure ( in mb ) Visibility ( mi km ) Precip ( " mm )
12:53 am 00:53 Mostly Cloudy 73 22.8 66 18.9 79 79 SSE 12 19 29.90 1012 10 16 0.00 0.00
1:53 am 01:53 Mostly Clear 72 22.2 66 18.9 82 82 SSE 14 22 29.88 1012 10 16 0.00 0.00
2:53 am 02:53 Clear 72 22.2 67 19.4 84 84 SSE 14 22 29.86 1011 10 16 0.00 0.00
8:53 am 08:53 Cloudy with Nearby Thunderstorms 72 22.2 66 18.9 82 82 S 12 19 29.89 1012 10 16 0.00 0.00
9:12 am 09:12 Cloudy 72 22.2 65 18.3 79 79 S 17 28 29.86 1011 10 16 0.00 0.00
9:53 am 09:53 Cloudy 71 21.7 64 17.8 79 79 SSE 18 30 29.89 1012 10 16 0.00 0.00
10:53 am 10:53 Cloudy 72 22.2 65 18.3 79 79 S 20 31 29.88 1012 10 16 0.00 0.00
11:53 am 11:53 Cloudy 73 22.8 64 17.8 74 74 S 18 30 29.89 1012 10 16 0.00 0.00
12:53 pm 12:53 Mostly Cloudy 77 25 65 18.3 66 66 S 17 28 29.88 1012 10 16 0.00 0.00
1:53 pm 13:53 Mostly Cloudy 80 26.7 66 18.9 62 62 S 17 28 29.85 1011 10 16 0.00 0.00
2:53 pm 14:53 Mostly Cloudy 81 27.2 67 19.4 62 62 SSW 18 30 29.84 1011 10 16 0.00 0.00
3:53 pm 15:53 Mostly Cloudy 81 27.2 68 20 65 65 SSW 21 33 29.83 1010 10 16 0.00 0.00
4:53 pm 16:53 Mostly Cloudy 82 27.8 68 20 63 63 SSW 15 24 29.85 1011 10 16 0.00 0.00
5:53 pm 17:53 Mostly Cloudy 81 27.2 69 20.6 67 67 SSW 12 19 29.85 1011 10 16 0.00 0.00
6:53 pm 18:53 Mostly Cloudy 80 26.7 69 20.6 69 69 SSW 9 15 29.86 1011 10 16 0.00 0.00
7:53 pm 19:53 Partly Cloudy 79 26.1 70 21.1 74 74 SW 9 15 29.88 1012 10 16 0.00 0.00
8:53 pm 20:53 Mostly Cloudy 77 25 70 21.1 79 79 SSW 5 7 29.90 1013 10 16 0.00 0.00
9:53 pm 21:53 Partly Cloudy 76 24.4 69 20.6 79 79 SW 7 11 29.92 1013 9 14 0.00 0.00
10:53 pm 22:53 Partly Cloudy 74 23.3 67 19.4 79 79 Calm 29.93 1014 8 13 0.00 0.00
11:53 pm 23:53 Mostly Clear 72 22.2 62 16.7 71 71 SW 3 6 29.94 1014 10 16 0.00 0.00

Powered by AerisWeather